{"data":{"norad_id":52297,"intl_designator":"2022-041AN","name":"STARLINK-3758","alt_names":[],"object_type":"PAYLOAD","status":"ACTIVE","operator":null,"country":"US","launch_date":"2022-04-21","launch_site_code":"AFETR","launch_vehicle":null,"mission":null,"orbit_class":"UNKNOWN","rcs_meters":null,"size_class":null,"mass_kg":null,"dimensions":null,"purposes":["comms"],"wikipedia_slug":null,"has_3d_model":false,"image_url":null,"decayed_at":null,"tle_current":{"epoch":"2026-05-25T03:04:30.285120Z","epoch_age_seconds":67083,"freshness":"FRESH","line1":"1 52297U 22041AN  26145.12812830  .00004369  00000+0  29258-3 0  9997","line2":"2 52297  53.2138 115.9754 0001407  74.3922 285.7225 15.08820681226044","mean_motion":15.08820681,"eccentricity":0.0001407,"inclination_deg":53.2138,"raan_deg":115.9754,"arg_perigee_deg":74.3922,"mean_anomaly_deg":285.7225,"bstar":0.00029258,"rev_number":22604,"period_min":95.438776664011,"perigee_km":538.82908596927,"apogee_km":540.7757941277,"semimajor_km":6917.9394400485,"source":"CELESTRAK","updated_at":"2026-05-25T13:38:17.087380Z"}}}